Total_Precipitation_Accumulation
0.42 0.37 0.46 0.53 0.51 0.54 0.71 0.69 0.59 0.40 0.33 0.35 0.36 0.36 0.36 0.34 0.31 0.28 0.32 0.37 0.40 0.46 0.51 0.52 0.52 0.51 0.54 0.64 0.72 0.92 1.14 1.31 1.29 1.25 1.33 1.37 1.33 1.38 1.41 1.44 1.52 1.65 1.76 1.91
0.32 0.22 0.30 0.38 0.34 0.40 0.44 0.45 0.41 0.33 0.37 0.34 0.34 0.30 0.32 0.34 0.33 0.33 0.34 0.36 0.36 0.41 0.46 0.48 0.49 0.49 0.52 0.59 0.65 0.78 0.98 1.17 1.24 1.22 1.28 1.33 1.28 1.34 1.39 1.42 1.46 1.57 1.61 1.63
0.49 0.23 0.45 0.64 0.46 0.45 0.45 0.46 0.45 0.44 0.43 0.34 0.33 0.32 0.36 0.36 0.36 0.38 0.39 0.37 0.35 0.39 0.42 0.43 0.43 0.43 0.48 0.56 0.58 0.65 0.80 0.98 1.09 1.13 1.15 1.18 1.18 1.26 1.34 1.40 1.38 1.41 1.45 1.44
0.78 0.58 0.96 0.70 0.38 0.40 0.46 0.50 0.48 0.45 0.40 0.37 0.37 0.37 0.36 0.36 0.39 0.41 0.40 0.38 0.38 0.42 0.42 0.39 0.38 0.40 0.42 0.47 0.52 0.57 0.67 0.82 1.00 1.05 1.05 1.05 1.08 1.12 1.19 1.28 1.31 1.26 1.27 1.27
1.15 0.86 0.61 0.38 0.27 0.39 0.49 0.55 0.48 0.39 0.32 0.31 0.31 0.30 0.33 0.32 0.32 0.36 0.37 0.36 0.38 0.43 0.45 0.42 0.38 0.38 0.41 0.45 0.48 0.54 0.65 0.75 0.88 0.99 1.00 0.97 1.02 1.03 1.05 1.09 1.17 1.14 1.13 1.18
1.37 1.03 0.63 0.41 0.21 0.25 0.43 0.62 0.39 0.32 0.30 0.30 0.32 0.40 0.38 0.31 0.27 0.28 0.28 0.30 0.35 0.39 0.42 0.41 0.39 0.39 0.41 0.47 0.48 0.51 0.64 0.74 0.80 0.87 0.91 0.89 0.94 0.99 0.99 0.98 1.01 1.02 0.98 1.03
1.16 0.95 0.47 0.27 0.17 0.23 0.56 0.66 0.34 0.28 0.28 0.29 0.37 0.42 0.35 0.28 0.26 0.27 0.28 0.29 0.32 0.36 0.37 0.38 0.38 0.39 0.42 0.47 0.52 0.53 0.61 0.68 0.73 0.79 0.83 0.80 0.86 0.88 0.91 0.94 0.93 0.93 0.88 0.92
0.95 1.05 0.57 0.24 0.24 0.49 0.59 0.30 0.24 0.22 0.23 0.25 0.27 0.25 0.24 0.25 0.27 0.29 0.30 0.30 0.30 0.32 0.31 0.32 0.34 0.36 0.40 0.47 0.52 0.55 0.57 0.60 0.68 0.74 0.75 0.74 0.84 0.83 0.83 0.89 0.93 0.93 0.91 0.94
0.78 0.68 0.45 0.33 0.39 0.41 0.34 0.28 0.21 0.21 0.20 0.22 0.24 0.24 0.25 0.27 0.27 0.30 0.30 0.29 0.28 0.29 0.28 0.29 0.32 0.35 0.39 0.45 0.49 0.58 0.58 0.59 0.63 0.71 0.78 0.79 0.84 0.85 0.85 0.85 0.87 0.91 0.91 0.89
0.51 0.39 0.33 0.32 0.29 0.25 0.21 0.22 0.20 0.20 0.22 0.23 0.25 0.24 0.26 0.27 0.29 0.30 0.31 0.29 0.28 0.28 0.29 0.31 0.34 0.37 0.40 0.44 0.49 0.58 0.58 0.58 0.61 0.68 0.78 0.80 0.83 0.85 0.87 0.89 0.96 0.98 0.94 0.90
0.44 0.32 0.26 0.23 0.22 0.23 0.20 0.17 0.17 0.17 0.19 0.22 0.24 0.25 0.26 0.29 0.31 0.33 0.33 0.30 0.29 0.27 0.29 0.32 0.35 0.38 0.39 0.42 0.49 0.56 0.59 0.58 0.59 0.64 0.77 0.81 0.85 0.88 0.90 0.87 1.05 1.18 1.06 1.04
0.40 0.30 0.34 0.28 0.22 0.22 0.23 0.20 0.19 0.20 0.21 0.21 0.22 0.24 0.27 0.31 0.34 0.34 0.33 0.31 0.29 0.28 0.29 0.33 0.37 0.39 0.40 0.42 0.47 0.54 0.60 0.62 0.61 0.64 0.76 0.81 0.85 0.92 0.96 0.95 0.98 0.99 1.02 1.10
0.28 0.20 0.23 0.24 0.22 0.22 0.23 0.22 0.23 0.24 0.24 0.24 0.23 0.24 0.28 0.32 0.34 0.34 0.32 0.33 0.33 0.33 0.34 0.36 0.39 0.41 0.43 0.42 0.44 0.52 0.60 0.64 0.65 0.65 0.75 0.81 0.79 0.85 0.89 0.90 0.92 0.94 0.96 1.00
0.21 0.21 0.22 0.21 0.23 0.22 0.21 0.21 0.22 0.23 0.23 0.23 0.24 0.26 0.29 0.31 0.32 0.31 0.33 0.36 0.35 0.33 0.35 0.37 0.37 0.40 0.43 0.43 0.42 0.48 0.57 0.62 0.66 0.69 0.74 0.79 0.78 0.80 0.79 0.84 0.88 0.92 0.96 1.03
0.18 0.21 0.23 0.21 0.21 0.19 0.17 0.17 0.19 0.21 0.21 0.21 0.21 0.24 0.27 0.29 0.31 0.31 0.31 0.33 0.32 0.31 0.33 0.33 0.34 0.38 0.41 0.40 0.41 0.49 0.60 0.67 0.70 0.75 0.78 0.79 0.79 0.80 0.77 0.78 0.82 0.86 0.93 1.10
0.18 0.16 0.16 0.17 0.18 0.18 0.18 0.18 0.20 0.23 0.24 0.24 0.24 0.28 0.31 0.30 0.29 0.28 0.28 0.29 0.30 0.33 0.33 0.33 0.35 0.39 0.41 0.40 0.41 0.48 0.59 0.76 0.82 0.84 0.84 0.83 0.83 0.82 0.80 0.81 0.83 0.85 0.93 1.08
0.23 0.18 0.17 0.17 0.17 0.19 0.20 0.21 0.23 0.26 0.27 0.27 0.30 0.32 0.32 0.29 0.26 0.26 0.29 0.30 0.31 0.33 0.35 0.36 0.38 0.40 0.42 0.42 0.46 0.52 0.61 0.73 0.84 0.87 0.87 0.89 0.89 0.86 0.84 0.86 0.87 0.87 0.92 1.06
0.26 0.23 0.22 0.24 0.24 0.23 0.22 0.22 0.23 0.25 0.27 0.29 0.30 0.32 0.33 0.32 0.31 0.31 0.33 0.31 0.28 0.29 0.35 0.39 0.41 0.42 0.41 0.43 0.51 0.58 0.67 0.76 0.85 0.94 0.97 0.99 1.00 0.93 0.91 0.91 0.88 0.89 0.93 1.03
0.22 0.22 0.22 0.22 0.23 0.24 0.25 0.26 0.25 0.24 0.24 0.24 0.25 0.29 0.31 0.32 0.32 0.33 0.32 0.29 0.30 0.36 0.42 0.43 0.43 0.40 0.42 0.49 0.61 0.66 0.74 0.83 0.91 0.97 1.01 1.09 1.07 0.99 0.96 0.94 0.93 0.93 0.96 1.03
0.24 0.23 0.23 0.22 0.21 0.23 0.24 0.26 0.26 0.23 0.23 0.24 0.25 0.26 0.27 0.30 0.32 0.33 0.32 0.33 0.39 0.48 0.49 0.48 0.44 0.44 0.51 0.59 0.71 0.74 0.79 0.89 0.97 1.02 1.05 1.08 1.10 1.10 1.06 1.02 1.00 1.00 1.02 1.05
0.27 0.25 0.24 0.23 0.21 0.22 0.24 0.26 0.28 0.26 0.24 0.26 0.29 0.30 0.31 0.32 0.33 0.33 0.34 0.39 0.44 0.48 0.49 0.48 0.47 0.56 0.68 0.77 0.77 0.76 0.83 0.94 1.01 1.04 1.09 1.13 1.15 1.14 1.11 1.08 1.05 1.05 1.05 1.04
0.31 0.30 0.28 0.27 0.27 0.28 0.29 0.30 0.32 0.31 0.29 0.30 0.31 0.33 0.34 0.35 0.34 0.35 0.40 0.50 0.56 0.56 0.52 0.50 0.56 0.69 0.80 0.82 0.76 0.79 0.87 0.99 1.06 1.07 1.11 1.13 1.19 1.22 1.17 1.14 1.12 1.09 1.09 1.07
0.39 0.38 0.37 0.38 0.39 0.40 0.37 0.37 0.39 0.39 0.39 0.40 0.40 0.40 0.41 0.43 0.41 0.40 0.49 0.55 0.56 0.57 0.57 0.63 0.70 0.75 0.79 0.79 0.81 0.85 0.97 1.09 1.16 1.16 1.17 1.18 1.22 1.27 1.27 1.23 1.16 1.14 1.16 1.14
0.48 0.47 0.48 0.49 0.48 0.45 0.46 0.49 0.49 0.49 0.49 0.51 0.51 0.50 0.49 0.47 0.47 0.50 0.58 0.61 0.60 0.60 0.64 0.71 0.72 0.73 0.76 0.78 0.85 0.96 1.09 1.19 1.24 1.24 1.24 1.24 1.26 1.30 1.30 1.27 1.22 1.15 1.13 1.11
0.55 0.55 0.54 0.55 0.58 0.61 0.60 0.57 0.54 0.52 0.51 0.53 0.55 0.55 0.55 0.54 0.59 0.64 0.64 0.63 0.62 0.61 0.64 0.67 0.69 0.70 0.72 0.80 0.91 1.06 1.18 1.26 1.35 1.36 1.34 1.32 1.30 1.32 1.32 1.27 1.21 1.13 1.08 1.06
0.58 0.60 0.63 0.66 0.70 0.71 0.67 0.61 0.58 0.57 0.54 0.53 0.54 0.56 0.57 0.59 0.61 0.64 0.64 0.64 0.63 0.65 0.66 0.67 0.69 0.73 0.79 0.87 0.97 1.10 1.19 1.26 1.35 1.38 1.33 1.31 1.30 1.31 1.31 1.26 1.15 1.07 1.00 0.98
0.60 0.61 0.60 0.61 0.65 0.68 0.67 0.65 0.64 0.63 0.58 0.55 0.55 0.57 0.58 0.59 0.61 0.62 0.62 0.62 0.63 0.65 0.67 0.70 0.73 0.79 0.85 0.94 1.02 1.10 1.17 1.24 1.35 1.42 1.38 1.33 1.32 1.32 1.30 1.21 1.09 1.01 0.94 0.93